Regional Weather Roundup
Issued by NWS Charleston, SC

Current Version | Previous Version | Graphics & Text | Print | Product List | Glossary On
Versions: 1 2 3 4 5 6 7 8 9 10 11 12 13 14 15 16 17 18 19 20 21 22 23 24 25 26 27 28 29 30 31 32 33 34 35 36 37 38 39 40 41 42 43 44 45 46 47 48 49 50
000
ASUS42 KCHS 270210
RWRCHS
REGIONAL WEATHER ROUNDUP
NATIONAL WEATHER SERVICE CHARLESTON SC
1000 PM EDT TUE AUG 26 2014

NOTE: "FAIR" INDICATES FEW OR NO CLOUDS BELOW 12,000 FEET WITH NO
SIGNIFICANT WEATHER AND/OR OBSTRUCTIONS TO VISIBILITY.

NOT ALL STATIONS ARE QUALITY CONTROLLED BY THE NATIONAL
WEATHER SERVICE. USE DATA WITH CAUTION...ESPECIALLY
DEWPOINT OBSERVATIONS.

SCZ027-030-031-034>040-042>050-270300-
...SOUTH CAROLINA...

CITY           SKY/WX    TMP DP  RH WIND       PRES   REMARKS
N CHARLESTON   CLEAR     77  64  64 N7        30.03R
WATERFRONT PRK   N/A     81 N/A N/A N9          N/A
FORT JOHNSON   NOT AVBL
MOUNT PLEASANT FAIR      73  70  88 CALM      30.03R
JOHNS ISLAND   CLEAR     75  70  83 CALM      30.03R
PINOPOLIS        N/A     82  64  54 NE12      29.95R
MONCKS CORNER    N/A     77  68  73 CALM      30.03S
SUMMERVILLE    FAIR      70  68  94 CALM      30.04S
BEAUFORT MCAS  CLEAR     77  64  64 E3        30.03R
BEAUFORT ARPT  FAIR      77  70  78 CALM      30.02R
HILTON HEAD IS CLEAR     79  70  73 N6        30.03S
GEORGETOWN     NOT AVBL
WALTERBORO     CLEAR     72  63  73 N3        30.04S
ORANGEBURG     PTCLDY    75  64  68 NE5       30.06R
BARNWELL       FAIR      73  64  73 N3        30.06R
AIKEN          FAIR      73  63  68 NE3       30.11S
MANNING        FAIR      68  68 100 CALM      30.05R
KINGSTREE      NOT AVBL
COLUMBIA       PTCLDY    81  58  45 NE8       30.06R
SUMTER         CLEAR     70  61  75 NE6       30.06R
FLORENCE       CLEAR     73  63  70 NE6       30.06R
MYRTLE BEACH   NOT AVBL
N MYRTLE BEACH NOT AVBL

$$

GAZ063-065-086>088-099>101-113>116-118-119-134-136>141-150-270300-
...GEORGIA...

CITY           SKY/WX    TMP DP  RH WIND       PRES   REMARKS
SAVANNAH ARPT  CLEAR     79  69  71 E5        30.03S
HUNTER AAF     CLEAR     78  69  75 E5        30.01R
FORT STEWART   CLEAR     77  70  78 CALM      30.02R
STATESBORO     NOT AVBL
SYLVANIA       CLEAR     72  69  89 CALM      30.05R
CLAXTON        NOT AVBL
THOMSON        CLEAR     74  69  83 NE5       30.12R
AUGUSTA-BUSH   CLEAR     71  64  78 CALM      30.05R
AUGUSTA-DANIEL PTCLDY    81  59  47 NE8       30.07R
SWAINSBORO     FAIR      75  70  83 CALM      30.06R
VIDALIA          N/A     79  66  65 CALM      30.04S
ALMA           CLEAR     74  66  76 CALM      30.02R
WAYCROSS       CLEAR     79  70  75 E5        30.02R
JESUP            N/A     79  72  78 CALM      30.03R
BRUNSWICK      CLEAR     73  70  88 CALM      30.02S
SAINT SIMONS   CLEAR     79  68  69 NE9       30.01R

$$

SCZ027-028-034-036>038-045-046-048>050-GAZ119-141-270300-
...LAKE AND SUPPLEMENTAL COASTAL OBSERVATIONS...

STATION/POSITION TIME  TEMP    WIND        PRES    WAVE   SWELL
                       AIR SEA DIR/SP/G            HT/PER HT/PER/DIR
                 (UTC) (F)     (DEG/KT/KT) (MB)    (FT/S) (FT/S/D)
UPR LAKE MARION  NOT AVBL
WINYAH BAY       0100   77     350/  5     1016.0S
LAKE MURRAY      0100   79      30/  2/  4 1017.6R
ACE BASIN NERRS  0100   75        CALM     1016.0S
FORT PULASKI     0200   81      30/  8/ 11 1016.7S
SAPELO ISLAND    0100   79      40/  6     1016.0S

$$

ANZ835-935-AMZ111-154-330-350-352-354-374-450-454-472-270300-
...C-MAN AND BUOY OBSERVATIONS...

STATION/POSITION TIME  TEMP    WIND        PRES    WAVE   SWELL
                       AIR SEA DIR/SP/G            HT/PER HT/PER/DIR
                 (UTC) (F)     (DEG/KT/KT) (MB)    (FT/S) (FT/S/D)
FOLLY BEACH CMAN 0200   79      20/  8/ 10 1017.0R
BUOY 41004       0200   81 83   30/ 19/ 23 1015.1R   7/12   5/12
BUOY 41008       0200   82 84   50/ 17/ 19 1015.6R   6/ 6   3/120/11
5E ST. MARYS GA  0200      83                N/A     7/ 7   3/100/11
FRYING PAN BUOY  NOT AVBL
BUOY 41025       0200   77      20/ 19/ 25 1015.4R   9/13   5/140/13
CAPE LOOKOUT NC  0200   76      20/ 16/ 20 1016.5F
BUOY 41002       0138   80 81   40/ 21/ 27 1010.4R  10/ 8   5/130/11
BUOY 41010       0200   82 85   20/ 19/ 23 1012.3R   9/ 9   7/ 50/ 9
BUOY 41012       NOT AVBL
ST AUGUSTINE FL  0200   79      50/ 18/ 20 1015.9R
CAPERS NEARSHORE 0100   80      50/ 12/ 16   N/A
FRIPP NEARSHORE  NOT AVBL


$$


USA.gov is the U.S. government's official web portal to all federal, state and local government web resources and services.